Time,TemperatureF,DewpointF,PressureIn,WindDirection,WindDirectionDegrees,WindSpeedMPH,WindSpeedGustMPH,Humidity,HourlyPrecipIn,Conditions,Clouds,dailyrainin,SoftwareType,DateUTC
2013-06-09 00:02:00,78.6,31.6,29.65,WNW,290,3.0,4.0,18,0.00,,,0.00,HR-IXPWINDi_r2_v1.2.,2013-06-09 06:02:00,
2013-06-09 00:07:00,78.1,32.5,29.65,West,278,2.0,4.0,19,0.00,,,0.00,HR-IXPWINDi_r2_v1.2.,2013-06-09 06:07:00,
2013-06-09 00:12:00,77.8,32.2,29.65,WNW,285,6.0,6.0,19,0.00,,,0.00,HR-IXPWINDi_r2_v1.2.,2013-06-09 06:12:00,
2013-06-09 00:17:00,77.4,31.9,29.65,WNW,290,3.0,6.0,19,0.00,,,0.00,HR-IXPWINDi_r2_v1.2.,2013-06-09 06:17:00,
2013-06-09 00:22:00,76.9,32.8,29.66,WSW,240,3.0,6.0,20,0.00,,,0.00,HR-IXPWINDi_r2_v1.2.,2013-06-09 06:22:00,
2013-06-09 00:28:00,76.8,32.7,29.66,West,281,2.0,6.0,20,0.00,,,0.00,HR-IXPWINDi_r2_v1.2.,2013-06-09 06:28:00,
2013-06-09 00:33:00,76.9,32.8,29.66,West,281,2.0,6.0,20,0.00,,,0.00,HR-IXPWINDi_r2_v1.2.,2013-06-09 06:33:00,
2013-06-09 00:38:00,76.5,32.4,29.66,WNW,284,3.0,6.0,20,0.00,,,0.00,HR-IXPWINDi_r2_v1.2.,2013-06-09 06:38:00,
2013-06-09 00:43:00,77.0,32.9,29.66,West,267,5.0,10.0,20,0.00,,,0.00,HR-IXPWINDi_r2_v1.2.,2013-06-09 06:43:00,
2013-06-09 00:48:00,77.3,33.1,29.66,West,266,4.0,10.0,20,0.00,,,0.00,HR-IXPWINDi_r2_v1.2.,2013-06-09 06:48:00,
2013-06-09 00:53:00,76.9,32.8,29.66,West,280,4.0,8.0,20,0.00,,,0.00,HR-IXPWINDi_r2_v1.2.,2013-06-09 06:53:00,
2013-06-09 00:59:00,76.6,33.7,29.66,WNW,302,3.0,7.0,21,0.00,,,0.00,HR-IXPWINDi_r2_v1.2.,2013-06-09 06:59:00,
2013-06-09 01:04:00,76.0,34.4,29.67,WSW,248,5.0,7.0,22,0.00,,,0.00,HR-IXPWINDi_r2_v1.2.,2013-06-09 07:04:00,
2013-06-09 01:09:00,75.7,34.2,29.67,West,277,3.0,7.0,22,0.00,,,0.00,HR-IXPWINDi_r2_v1.2.,2013-06-09 07:09:00,
2013-06-09 01:14:00,75.2,33.7,29.67,WNW,291,3.0,7.0,22,0.00,,,0.00,HR-IXPWINDi_r2_v1.2.,2013-06-09 07:14:00,
2013-06-09 01:19:00,74.7,34.4,29.67,WNW,285,2.0,5.0,23,0.00,,,0.00,HR-IXPWINDi_r2_v1.2.,2013-06-09 07:19:00,
2013-06-09 01:24:00,74.4,34.2,29.67,WSW,256,2.0,4.0,23,0.00,,,0.00,HR-IXPWINDi_r2_v1.2.,2013-06-09 07:24:00,
2013-06-09 01:29:00,74.2,34.0,29.68,West,281,1.0,3.0,23,0.00,,,0.00,HR-IXPWINDi_r2_v1.2.,2013-06-09 07:29:00,
2013-06-09 01:34:00,73.9,34.8,29.68,WNW,283,0.0,3.0,24,0.00,,,0.00,HR-IXPWINDi_r2_v1.2.,2013-06-09 07:34:00,
2013-06-09 01:39:00,73.7,34.7,29.68,West,281,1.0,3.0,24,0.00,,,0.00,HR-IXPWINDi_r2_v1.2.,2013-06-09 07:39:00,
2013-06-09 01:45:00,73.6,34.6,29.68,West,281,1.0,3.0,24,0.00,,,0.00,HR-IXPWINDi_r2_v1.2.,2013-06-09 07:45:00,
2013-06-09 01:50:00,73.1,35.2,29.68,WSW,257,1.0,3.0,25,0.00,,,0.00,HR-IXPWINDi_r2_v1.2.,2013-06-09 07:50:00,
2013-06-09 01:55:00,72.8,34.9,29.68,WNW,287,1.0,3.0,25,0.00,,,0.00,HR-IXPWINDi_r2_v1.2.,2013-06-09 07:55:00,
2013-06-09 02:00:00,72.7,35.8,29.68,WNW,287,0.0,2.0,26,0.00,,,0.00,HR-IXPWINDi_r2_v1.2.,2013-06-09 08:00:00,
2013-06-09 02:05:00,72.9,35.0,29.68,West,276,1.0,2.0,25,0.00,,,0.00,HR-IXPWINDi_r2_v1.2.,2013-06-09 08:05:00,
2013-06-09 02:11:00,72.4,35.6,29.68,NNE,23,0.0,2.0,26,0.00,,,0.00,HR-IXPWINDi_r2_v1.2.,2013-06-09 08:11:00,
2013-06-09 02:16:00,72.1,35.3,29.68,SW,226,0.0,2.0,26,0.00,,,0.00,HR-IXPWINDi_r2_v1.2.,2013-06-09 08:16:00,
2013-06-09 02:21:00,71.3,36.5,29.68,SW,228,1.0,2.0,28,0.00,,,0.00,HR-IXPWINDi_r2_v1.2.,2013-06-09 08:21:00,
2013-06-09 02:27:00,71.7,35.9,29.68,West,274,0.0,1.0,27,0.00,,,0.00,HR-IXPWINDi_r2_v1.2.,2013-06-09 08:27:00,
2013-06-09 02:32:00,71.4,36.6,29.68,WSW,243,2.0,3.0,28,0.00,,,0.00,HR-IXPWINDi_r2_v1.2.,2013-06-09 08:32:00,
2013-06-09 02:37:00,71.1,35.4,29.68,NW,304,1.0,3.0,27,0.00,,,0.00,HR-IXPWINDi_r2_v1.2.,2013-06-09 08:37:00,
2013-06-09 02:42:00,71.4,35.7,29.68,West,269,5.0,6.0,27,0.00,,,0.00,HR-IXPWINDi_r2_v1.2.,2013-06-09 08:42:00,
2013-06-09 02:47:00,71.7,35.9,29.68,West,278,3.0,6.0,27,0.00,,,0.00,HR-IXPWINDi_r2_v1.2.,2013-06-09 08:47:00,
2013-06-09 02:52:00,71.5,36.7,29.68,WNW,283,2.0,6.0,28,0.00,,,0.00,HR-IXPWINDi_r2_v1.2.,2013-06-09 08:52:00,
2013-06-09 02:57:00,71.2,36.4,29.68,WNW,288,3.0,4.0,28,0.00,,,0.00,HR-IXPWINDi_r2_v1.2.,2013-06-09 08:57:00,
2013-06-09 03:03:00,71.0,36.2,29.69,West,271,4.0,5.0,28,0.00,,,0.00,HR-IXPWINDi_r2_v1.2.,2013-06-09 09:03:00,
2013-06-09 03:08:00,71.3,36.5,29.69,West,278,3.0,5.0,28,0.00,,,0.00,HR-IXPWINDi_r2_v1.2.,2013-06-09 09:08:00,
2013-06-09 03:13:00,71.3,36.5,29.69,West,273,1.0,5.0,28,0.00,,,0.00,HR-IXPWINDi_r2_v1.2.,2013-06-09 09:13:00,
2013-06-09 03:18:00,71.4,37.5,29.69,WSW,250,1.0,4.0,29,0.00,,,0.00,HR-IXPWINDi_r2_v1.2.,2013-06-09 09:18:00,
2013-06-09 03:23:00,70.4,38.3,29.69,ENE,72,3.0,4.0,31,0.00,,,0.00,HR-IXPWINDi_r2_v1.2.,2013-06-09 09:23:00,
2013-06-09 03:29:00,69.1,38.0,29.69,ENE,60,0.0,3.0,32,0.00,,,0.00,HR-IXPWINDi_r2_v1.2.,2013-06-09 09:29:00,
2013-06-09 03:34:00,68.0,38.6,29.69,ENE,60,2.0,3.0,34,0.00,,,0.00,HR-IXPWINDi_r2_v1.2.,2013-06-09 09:34:00,
2013-06-09 03:39:00,67.1,39.2,29.69,ENE,61,0.0,2.0,36,0.00,,,0.00,HR-IXPWINDi_r2_v1.2.,2013-06-09 09:39:00,
2013-06-09 03:44:00,66.6,39.5,29.69,ENE,74,2.0,4.0,37,0.00,,,0.00,HR-IXPWINDi_r2_v1.2.,2013-06-09 09:44:00,
2013-06-09 03:49:00,66.6,38.1,29.69,East,99,0.0,4.0,35,0.00,,,0.00,HR-IXPWINDi_r2_v1.2.,2013-06-09 09:49:00,
2013-06-09 03:54:00,66.1,38.3,29.69,East,99,0.0,3.0,36,0.00,,,0.00,HR-IXPWINDi_r2_v1.2.,2013-06-09 09:54:00,
2013-06-09 03:59:00,65.7,39.4,29.69,NE,49,3.0,3.0,38,0.00,,,0.00,HR-IXPWINDi_r2_v1.2.,2013-06-09 09:59:00,
2013-06-09 04:05:00,65.2,38.2,29.70,SSW,197,1.0,4.0,37,0.00,,,0.00,HR-IXPWINDi_r2_v1.2.,2013-06-09 10:05:00,
2013-06-09 04:10:00,64.9,39.3,29.70,ENE,63,2.0,4.0,39,0.00,,,0.00,HR-IXPWINDi_r2_v1.2.,2013-06-09 10:10:00,
2013-06-09 04:15:00,64.3,39.4,29.70,NNE,25,2.0,3.0,40,0.00,,,0.00,HR-IXPWINDi_r2_v1.2.,2013-06-09 10:15:00,
2013-06-09 04:20:00,63.8,38.3,29.70,East,99,1.0,6.0,39,0.00,,,0.00,HR-IXPWINDi_r2_v1.2.,2013-06-09 10:20:00,
2013-06-09 04:25:00,63.4,38.0,29.71,ESE,114,1.0,6.0,39,0.00,,,0.00,HR-IXPWINDi_r2_v1.2.,2013-06-09 10:25:00,
2013-06-09 04:31:00,63.3,38.5,29.71,NE,36,2.0,3.0,40,0.00,,,0.00,HR-IXPWINDi_r2_v1.2.,2013-06-09 10:31:00,
2013-06-09 04:36:00,62.8,38.7,29.71,NNE,27,0.0,3.0,41,0.00,,,0.00,HR-IXPWINDi_r2_v1.2.,2013-06-09 10:36:00,
2013-06-09 04:41:00,62.3,38.9,29.72,NNE,27,0.0,3.0,42,0.00,,,0.00,HR-IXPWINDi_r2_v1.2.,2013-06-09 10:41:00,
2013-06-09 04:46:00,62.0,39.2,29.72,NE,41,0.0,2.0,43,0.00,,,0.00,HR-IXPWINDi_r2_v1.2.,2013-06-09 10:46:00,
2013-06-09 04:52:00,61.6,39.4,29.72,ENE,58,2.0,2.0,44,0.00,,,0.00,HR-IXPWINDi_r2_v1.2.,2013-06-09 10:52:00,
2013-06-09 05:04:00,60.8,39.3,29.72,East,82,0.0,1.0,45,0.00,,,0.00,HR-IXPWINDi_r2_v1.2.,2013-06-09 11:04:00,
2013-06-09 05:09:00,60.5,39.6,29.72,North,6,1.0,1.0,46,0.00,,,0.00,HR-IXPWINDi_r2_v1.2.,2013-06-09 11:09:00,
2013-06-09 05:14:00,60.0,39.7,29.73,NNW,343,0.0,2.0,47,0.00,,,0.00,HR-IXPWINDi_r2_v1.2.,2013-06-09 11:14:00,
2013-06-09 05:19:00,59.7,39.9,29.73,NNW,342,0.0,2.0,48,0.00,,,0.00,HR-IXPWINDi_r2_v1.2.,2013-06-09 11:19:00,
2013-06-09 05:24:00,59.1,39.4,29.73,NNW,343,0.0,1.0,48,0.00,,,0.00,HR-IXPWINDi_r2_v1.2.,2013-06-09 11:24:00,
2013-06-09 05:30:00,58.8,40.2,29.73,NNW,343,0.0,1.0,50,0.00,,,0.00,HR-IXPWINDi_r2_v1.2.,2013-06-09 11:30:00,
2013-06-09 05:35:00,58.7,40.1,29.73,NNE,29,0.0,1.0,50,0.00,,,0.00,HR-IXPWINDi_r2_v1.2.,2013-06-09 11:35:00,
2013-06-09 05:40:00,58.4,40.3,29.73,NNE,28,0.0,1.0,51,0.00,,,0.00,HR-IXPWINDi_r2_v1.2.,2013-06-09 11:40:00,
2013-06-09 05:45:00,58.1,39.0,29.73,NNE,28,0.0,1.0,49,0.00,,,0.00,HR-IXPWINDi_r2_v1.2.,2013-06-09 11:45:00,
2013-06-09 05:50:00,57.9,39.3,29.73,NNE,29,0.0,1.0,50,0.00,,,0.00,HR-IXPWINDi_r2_v1.2.,2013-06-09 11:50:00,
2013-06-09 05:55:00,57.6,39.6,29.73,NNE,29,1.0,1.0,51,0.00,,,0.00,HR-IXPWINDi_r2_v1.2.,2013-06-09 11:55:00,
2013-06-09 06:01:00,57.7,40.6,29.73,NNE,29,0.0,1.0,53,0.00,,,0.00,HR-IXPWINDi_r2_v1.2.,2013-06-09 12:01:00,
2013-06-09 06:06:00,57.5,40.0,29.73,NNE,28,0.0,1.0,52,0.00,,,0.00,HR-IXPWINDi_r2_v1.2.,2013-06-09 12:06:00,
2013-06-09 06:12:00,57.1,39.6,29.73,NNE,28,0.0,0.0,52,0.00,,,0.00,HR-IXPWINDi_r2_v1.2.,2013-06-09 12:12:00,
2013-06-09 06:17:00,57.4,39.9,29.73,NNE,29,0.0,0.0,52,0.00,,,0.00,HR-IXPWINDi_r2_v1.2.,2013-06-09 12:17:00,
2013-06-09 06:22:00,57.5,40.0,29.74,NNE,29,0.0,0.0,52,0.00,,,0.00,HR-IXPWINDi_r2_v1.2.,2013-06-09 12:22:00,
2013-06-09 06:27:00,57.8,40.7,29.74,NNW,329,0.0,0.0,53,0.00,,,0.00,HR-IXPWINDi_r2_v1.2.,2013-06-09 12:27:00,
2013-06-09 06:32:00,57.9,41.3,29.74,NNW,329,0.0,0.0,54,0.00,,,0.00,HR-IXPWINDi_r2_v1.2.,2013-06-09 12:32:00,
2013-06-09 06:38:00,58.0,41.4,29.74,NNW,329,0.0,0.0,54,0.00,,,0.00,HR-IXPWINDi_r2_v1.2.,2013-06-09 12:38:00,
2013-06-09 06:43:00,59.0,41.8,29.74,NNW,327,0.0,0.0,53,0.00,,,0.00,HR-IXPWINDi_r2_v1.2.,2013-06-09 12:43:00,
2013-06-09 06:48:00,60.1,42.4,29.74,NNW,327,0.0,0.0,52,0.00,,,0.00,HR-IXPWINDi_r2_v1.2.,2013-06-09 12:48:00,
2013-06-09 06:53:00,62.1,42.7,29.74,NNW,327,0.0,0.0,49,0.00,,,0.00,HR-IXPWINDi_r2_v1.2.,2013-06-09 12:53:00,
2013-06-09 06:59:00,62.9,43.4,29.74,NNW,335,0.0,0.0,49,0.00,,,0.00,HR-IXPWINDi_r2_v1.2.,2013-06-09 12:59:00,
2013-06-09 07:04:00,63.1,43.1,29.74,NNW,335,0.0,0.0,48,0.00,,,0.00,HR-IXPWINDi_r2_v1.2.,2013-06-09 13:04:00,
2013-06-09 07:09:00,64.2,44.1,29.74,NNW,335,0.0,0.0,48,0.00,,,0.00,HR-IXPWINDi_r2_v1.2.,2013-06-09 13:09:00,
2013-06-09 07:14:00,65.1,43.2,29.74,NNE,16,0.0,0.0,45,0.00,,,0.00,HR-IXPWINDi_r2_v1.2.,2013-06-09 13:14:00,
2013-06-09 07:19:00,64.9,44.1,29.74,NNE,26,2.0,2.0,47,0.00,,,0.00,HR-IXPWINDi_r2_v1.2.,2013-06-09 13:19:00,
2013-06-09 07:24:00,65.2,45.0,29.74,NNE,30,0.0,2.0,48,0.00,,,0.00,HR-IXPWINDi_r2_v1.2.,2013-06-09 13:24:00,
2013-06-09 07:29:00,65.6,44.2,29.74,NNE,30,0.0,2.0,46,0.00,,,0.00,HR-IXPWINDi_r2_v1.2.,2013-06-09 13:29:00,
2013-06-09 07:34:00,65.6,43.6,29.74,WNW,288,1.0,2.0,45,0.00,,,0.00,HR-IXPWINDi_r2_v1.2.,2013-06-09 13:34:00,
2013-06-09 07:40:00,65.4,44.6,29.74,WNW,293,1.0,2.0,47,0.00,,,0.00,HR-IXPWINDi_r2_v1.2.,2013-06-09 13:40:00,
2013-06-09 07:45:00,65.5,44.1,29.74,WNW,290,1.0,2.0,46,0.00,,,0.00,HR-IXPWINDi_r2_v1.2.,2013-06-09 13:45:00,
2013-06-09 07:50:00,65.8,43.2,29.74,WNW,290,2.0,2.0,44,0.00,,,0.00,HR-IXPWINDi_r2_v1.2.,2013-06-09 13:50:00,
2013-06-09 07:55:00,66.5,43.9,29.74,WNW,290,1.0,2.0,44,0.00,,,0.00,HR-IXPWINDi_r2_v1.2.,2013-06-09 13:55:00,
2013-06-09 08:00:00,66.9,43.0,29.75,West,271,1.0,2.0,42,0.00,,,0.00,HR-IXPWINDi_r2_v1.2.,2013-06-09 14:00:00,
2013-06-09 08:06:00,67.5,42.9,29.75,WNW,284,2.0,3.0,41,0.00,,,0.00,HR-IXPWINDi_r2_v1.2.,2013-06-09 14:06:00,
2013-06-09 08:11:00,68.0,43.4,29.75,West,273,1.0,3.0,41,0.00,,,0.00,HR-IXPWINDi_r2_v1.2.,2013-06-09 14:11:00,
2013-06-09 08:16:00,69.1,43.1,29.75,West,259,1.0,3.0,39,0.00,,,0.00,HR-IXPWINDi_r2_v1.2.,2013-06-09 14:16:00,
2013-06-09 08:21:00,69.5,42.7,29.75,WNW,284,0.0,2.0,38,0.00,,,0.00,HR-IXPWINDi_r2_v1.2.,2013-06-09 14:21:00,
2013-06-09 08:27:00,70.1,44.0,29.75,West,267,0.0,2.0,39,0.00,,,0.00,HR-IXPWINDi_r2_v1.2.,2013-06-09 14:27:00,
2013-06-09 08:32:00,70.8,43.9,29.75,West,281,1.0,2.0,38,0.00,,,0.00,HR-IXPWINDi_r2_v1.2.,2013-06-09 14:32:00,
2013-06-09 08:37:00,71.6,43.9,29.75,West,269,1.0,2.0,37,0.00,,,0.00,HR-IXPWINDi_r2_v1.2.,2013-06-09 14:37:00,
2013-06-09 08:42:00,72.7,44.2,29.75,West,274,0.0,2.0,36,0.00,,,0.00,HR-IXPWINDi_r2_v1.2.,2013-06-09 14:42:00,
2013-06-09 08:47:00,74.1,44.7,29.75,SSW,194,1.0,1.0,35,0.00,,,0.00,HR-IXPWINDi_r2_v1.2.,2013-06-09 14:47:00,
2013-06-09 08:52:00,75.5,43.6,29.75,SSW,194,3.0,3.0,32,0.00,,,0.00,HR-IXPWINDi_r2_v1.2.,2013-06-09 14:52:00,
2013-06-09 08:58:00,76.4,41.8,29.75,SE,131,1.0,5.0,29,0.00,,,0.00,HR-IXPWINDi_r2_v1.2.,2013-06-09 14:58:00,
2013-06-09 09:03:00,77.0,40.4,29.75,South,169,2.0,7.0,27,0.00,,,0.00,HR-IXPWINDi_r2_v1.2.,2013-06-09 15:03:00,
2013-06-09 09:08:00,77.4,40.8,29.75,ESE,112,1.0,7.0,27,0.00,,,0.00,HR-IXPWINDi_r2_v1.2.,2013-06-09 15:08:00,
2013-06-09 09:13:00,77.9,41.2,29.75,SSE,147,1.0,7.0,27,0.00,,,0.00,HR-IXPWINDi_r2_v1.2.,2013-06-09 15:13:00,
2013-06-09 09:18:00,78.3,39.6,29.75,SSE,158,4.0,6.0,25,0.00,,,0.00,HR-IXPWINDi_r2_v1.2.,2013-06-09 15:18:00,
2013-06-09 09:24:00,78.3,38.5,29.75,SSE,158,6.0,8.0,24,0.00,,,0.00,HR-IXPWINDi_r2_v1.2.,2013-06-09 15:24:00,
2013-06-09 09:29:00,78.1,38.4,29.74,East,96,7.0,8.0,24,0.00,,,0.00,HR-IXPWINDi_r2_v1.2.,2013-06-09 15:29:00,
2013-06-09 09:34:00,78.3,41.5,29.74,East,99,2.0,8.0,27,0.00,,,0.00,HR-IXPWINDi_r2_v1.2.,2013-06-09 15:34:00,
2013-06-09 09:39:00,78.8,38.9,29.74,SSE,160,2.0,9.0,24,0.00,,,0.00,HR-IXPWINDi_r2_v1.2.,2013-06-09 15:39:00,
2013-06-09 09:44:00,79.1,38.1,29.74,East,98,4.0,9.0,23,0.00,,,0.00,HR-IXPWINDi_r2_v1.2.,2013-06-09 15:44:00,
2013-06-09 09:49:00,79.2,38.2,29.74,ESE,117,3.0,6.0,23,0.00,,,0.00,HR-IXPWINDi_r2_v1.2.,2013-06-09 15:49:00,
2013-06-09 09:54:00,79.7,40.8,29.74,NNE,23,3.0,6.0,25,0.00,,,0.00,HR-IXPWINDi_r2_v1.2.,2013-06-09 15:54:00,
2013-06-09 09:59:00,79.9,37.6,29.74,East,96,3.0,7.0,22,0.00,,,0.00,HR-IXPWINDi_r2_v1.2.,2013-06-09 15:59:00,
2013-06-09 10:04:00,80.3,38.0,29.73,East,96,5.0,7.0,22,0.00,,,0.00,HR-IXPWINDi_r2_v1.2.,2013-06-09 16:04:00,
2013-06-09 10:10:00,80.3,39.1,29.73,East,94,3.0,6.0,23,0.00,,,0.00,HR-IXPWINDi_r2_v1.2.,2013-06-09 16:10:00,
2013-06-09 10:15:00,80.2,37.9,29.73,ENE,58,3.0,9.0,22,0.00,,,0.00,HR-IXPWINDi_r2_v1.2.,2013-06-09 16:15:00,
2013-06-09 10:20:00,80.3,39.1,29.73,ESE,110,4.0,9.0,23,0.00,,,0.00,HR-IXPWINDi_r2_v1.2.,2013-06-09 16:20:00,
2013-06-09 10:25:00,80.5,38.1,29.73,ESE,117,3.0,7.0,22,0.00,,,0.00,HR-IXPWINDi_r2_v1.2.,2013-06-09 16:25:00,
2013-06-09 10:30:00,81.0,39.7,29.73,East,82,3.0,7.0,23,0.00,,,0.00,HR-IXPWINDi_r2_v1.2.,2013-06-09 16:30:00,
2013-06-09 10:36:00,81.0,38.6,29.73,NE,54,4.0,7.0,22,0.00,,,0.00,HR-IXPWINDi_r2_v1.2.,2013-06-09 16:36:00,
2013-06-09 10:41:00,81.4,38.9,29.72,ESE,114,2.0,7.0,22,0.00,,,0.00,HR-IXPWINDi_r2_v1.2.,2013-06-09 16:41:00,
2013-06-09 10:46:00,82.2,39.6,29.72,East,86,4.0,7.0,22,0.00,,,0.00,HR-IXPWINDi_r2_v1.2.,2013-06-09 16:46:00,
2013-06-09 10:51:00,82.7,38.8,29.72,SW,229,1.0,6.0,21,0.00,,,0.00,HR-IXPWINDi_r2_v1.2.,2013-06-09 16:51:00,
2013-06-09 10:56:00,82.8,38.9,29.72,SE,124,3.0,8.0,21,0.00,,,0.00,HR-IXPWINDi_r2_v1.2.,2013-06-09 16:56:00,
2013-06-09 11:02:00,83.0,39.0,29.72,SE,137,1.0,8.0,21,0.00,,,0.00,HR-IXPWINDi_r2_v1.2.,2013-06-09 17:02:00,
2013-06-09 11:07:00,83.4,38.1,29.72,ESE,103,3.0,6.0,20,0.00,,,0.00,HR-IXPWINDi_r2_v1.2.,2013-06-09 17:07:00,
2013-06-09 11:12:00,83.9,38.5,29.72,SE,139,2.0,5.0,20,0.00,,,0.00,HR-IXPWINDi_r2_v1.2.,2013-06-09 17:12:00,
2013-06-09 11:17:00,84.2,37.5,29.71,SE,143,1.0,6.0,19,0.00,,,0.00,HR-IXPWINDi_r2_v1.2.,2013-06-09 17:17:00,
2013-06-09 11:22:00,84.6,39.1,29.71,East,79,1.0,6.0,20,0.00,,,0.00,HR-IXPWINDi_r2_v1.2.,2013-06-09 17:22:00,
2013-06-09 11:27:00,85.1,35.4,29.71,SE,125,1.0,5.0,17,0.00,,,0.00,HR-IXPWINDi_r2_v1.2.,2013-06-09 17:27:00,
2013-06-09 11:32:00,85.4,37.1,29.71,ENE,67,2.0,9.0,18,0.00,,,0.00,HR-IXPWINDi_r2_v1.2.,2013-06-09 17:32:00,
2013-06-09 11:38:00,85.8,40.1,29.71,ENE,71,2.0,9.0,20,0.00,,,0.00,HR-IXPWINDi_r2_v1.2.,2013-06-09 17:38:00,
2013-06-09 11:43:00,86.3,34.8,29.71,SSW,197,2.0,8.0,16,0.00,,,0.00,HR-IXPWINDi_r2_v1.2.,2013-06-09 17:43:00,
2013-06-09 11:48:00,87.3,35.6,29.71,SSE,165,2.0,6.0,16,0.00,,,0.00,HR-IXPWINDi_r2_v1.2.,2013-06-09 17:48:00,
2013-06-09 11:53:00,87.8,34.4,29.71,ESE,109,2.0,9.0,15,0.00,,,0.00,HR-IXPWINDi_r2_v1.2.,2013-06-09 17:53:00,
2013-06-09 11:58:00,87.5,32.5,29.71,ESE,105,3.0,9.0,14,0.00,,,0.00,HR-IXPWINDi_r2_v1.2.,2013-06-09 17:58:00,
2013-06-09 12:03:00,87.8,34.4,29.70,NE,51,3.0,7.0,15,0.00,,,0.00,HR-IXPWINDi_r2_v1.2.,2013-06-09 18:03:00,
2013-06-09 12:08:00,87.9,34.5,29.70,NE,34,5.0,7.0,15,0.00,,,0.00,HR-IXPWINDi_r2_v1.2.,2013-06-09 18:08:00,
2013-06-09 12:14:00,87.7,36.0,29.70,East,97,1.0,6.0,16,0.00,,,0.00,HR-IXPWINDi_r2_v1.2.,2013-06-09 18:14:00,
2013-06-09 12:19:00,88.2,33.0,29.70,NE,37,3.0,5.0,14,0.00,,,0.00,HR-IXPWINDi_r2_v1.2.,2013-06-09 18:19:00,
2013-06-09 12:24:00,88.7,35.1,29.69,ESE,107,1.0,5.0,15,0.00,,,0.00,HR-IXPWINDi_r2_v1.2.,2013-06-09 18:24:00,
2013-06-09 12:29:00,88.9,31.7,29.69,ESE,115,3.0,7.0,13,0.00,,,0.00,HR-IXPWINDi_r2_v1.2.,2013-06-09 18:29:00,
2013-06-09 12:34:00,88.3,31.3,29.69,NE,37,3.0,7.0,13,0.00,,,0.00,HR-IXPWINDi_r2_v1.2.,2013-06-09 18:34:00,
2013-06-09 12:39:00,88.0,31.0,29.69,NNE,32,4.0,9.0,13,0.00,,,0.00,HR-IXPWINDi_r2_v1.2.,2013-06-09 18:39:00,
2013-06-09 12:45:00,88.2,29.2,29.68,NNE,23,0.0,9.0,12,0.00,,,0.00,HR-IXPWINDi_r2_v1.2.,2013-06-09 18:45:00,
2013-06-09 12:50:00,88.6,33.3,29.68,NE,49,3.0,7.0,14,0.00,,,0.00,HR-IXPWINDi_r2_v1.2.,2013-06-09 18:50:00,
2013-06-09 12:55:00,89.3,30.1,29.68,NE,37,5.0,7.0,12,0.00,,,0.00,HR-IXPWINDi_r2_v1.2.,2013-06-09 18:55:00,
2013-06-09 13:00:00,89.1,31.9,29.68,NNW,338,2.0,7.0,13,0.00,,,0.00,HR-IXPWINDi_r2_v1.2.,2013-06-09 19:00:00,
2013-06-09 13:05:00,89.7,30.4,29.68,NE,50,4.0,7.0,12,0.00,,,0.00,HR-IXPWINDi_r2_v1.2.,2013-06-09 19:05:00,
2013-06-09 13:10:00,89.7,32.3,29.68,NE,54,2.0,6.0,13,0.00,,,0.00,HR-IXPWINDi_r2_v1.2.,2013-06-09 19:10:00,
2013-06-09 13:15:00,89.3,30.1,29.68,NW,319,3.0,8.0,12,0.00,,,0.00,HR-IXPWINDi_r2_v1.2.,2013-06-09 19:15:00,
2013-06-09 13:21:00,90.5,34.8,29.68,East,82,3.0,8.0,14,0.00,,,0.00,HR-IXPWINDi_r2_v1.2.,2013-06-09 19:21:00,
2013-06-09 13:26:00,91.0,29.2,29.67,SSW,210,1.0,4.0,11,0.00,,,0.00,HR-IXPWINDi_r2_v1.2.,2013-06-09 19:26:00,
2013-06-09 13:31:00,91.5,31.8,29.67,East,84,3.0,5.0,12,0.00,,,0.00,HR-IXPWINDi_r2_v1.2.,2013-06-09 19:31:00,
2013-06-09 13:36:00,91.7,31.9,29.67,North,10,3.0,5.0,12,0.00,,,0.00,HR-IXPWINDi_r2_v1.2.,2013-06-09 19:36:00,
2013-06-09 13:42:00,91.7,33.9,29.67,ENE,77,4.0,7.0,13,0.00,,,0.00,HR-IXPWINDi_r2_v1.2.,2013-06-09 19:42:00,
2013-06-09 13:47:00,91.3,31.6,29.67,SSW,207,1.0,7.0,12,0.00,,,0.00,HR-IXPWINDi_r2_v1.2.,2013-06-09 19:47:00,
2013-06-09 13:52:00,91.6,31.8,29.66,East,85,2.0,7.0,12,0.00,,,0.00,HR-IXPWINDi_r2_v1.2.,2013-06-09 19:52:00,
2013-06-09 13:57:00,92.1,30.1,29.66,NE,44,2.0,5.0,11,0.00,,,0.00,HR-IXPWINDi_r2_v1.2.,2013-06-09 19:57:00,
2013-06-09 14:02:00,92.0,32.1,29.66,NNE,20,3.0,6.0,12,0.00,,,0.00,HR-IXPWINDi_r2_v1.2.,2013-06-09 20:02:00,
2013-06-09 14:07:00,92.2,27.8,29.66,WNW,297,3.0,7.0,10,0.00,,,0.00,HR-IXPWINDi_r2_v1.2.,2013-06-09 20:07:00,
2013-06-09 14:13:00,92.2,30.2,29.66,West,269,2.0,7.0,11,0.00,,,0.00,HR-IXPWINDi_r2_v1.2.,2013-06-09 20:13:00,
2013-06-09 14:18:00,93.1,30.8,29.65,SE,139,0.0,6.0,11,0.00,,,0.00,HR-IXPWINDi_r2_v1.2.,2013-06-09 20:18:00,
2013-06-09 14:23:00,94.4,29.5,29.65,West,270,2.0,4.0,10,0.00,,,0.00,HR-IXPWINDi_r2_v1.2.,2013-06-09 20:23:00,
2013-06-09 14:28:00,93.7,29.0,29.65,NW,318,1.0,5.0,10,0.00,,,0.00,HR-IXPWINDi_r2_v1.2.,2013-06-09 20:28:00,
2013-06-09 14:33:00,94.6,29.6,29.65,WSW,238,1.0,5.0,10,0.00,,,0.00,HR-IXPWINDi_r2_v1.2.,2013-06-09 20:33:00,
2013-06-09 14:38:00,94.6,29.6,29.64,West,264,2.0,5.0,10,0.00,,,0.00,HR-IXPWINDi_r2_v1.2.,2013-06-09 20:38:00,
2013-06-09 14:43:00,94.4,29.5,29.64,WSW,253,3.0,9.0,10,0.00,,,0.00,HR-IXPWINDi_r2_v1.2.,2013-06-09 20:43:00,
2013-06-09 14:48:00,94.6,29.6,29.64,West,281,2.0,9.0,10,0.00,,,0.00,HR-IXPWINDi_r2_v1.2.,2013-06-09 20:48:00,
2013-06-09 14:53:00,94.5,31.9,29.64,NE,34,5.0,6.0,11,0.00,,,0.00,HR-IXPWINDi_r2_v1.2.,2013-06-09 20:53:00,
2013-06-09 14:59:00,94.5,34.1,29.63,NE,49,1.0,6.0,12,0.00,,,0.00,HR-IXPWINDi_r2_v1.2.,2013-06-09 20:59:00,
2013-06-09 15:04:00,94.8,34.3,29.63,NE,44,6.0,8.0,12,0.00,,,0.00,HR-IXPWINDi_r2_v1.2.,2013-06-09 21:04:00,
2013-06-09 15:09:00,94.3,29.4,29.63,NW,309,6.0,8.0,10,0.00,,,0.00,HR-IXPWINDi_r2_v1.2.,2013-06-09 21:09:00,
2013-06-09 15:14:00,94.0,31.5,29.63,West,264,1.0,8.0,11,0.00,,,0.00,HR-IXPWINDi_r2_v1.2.,2013-06-09 21:14:00,
2013-06-09 15:19:00,94.7,29.7,29.62,NW,323,5.0,8.0,10,0.00,,,0.00,HR-IXPWINDi_r2_v1.2.,2013-06-09 21:19:00,
2013-06-09 15:24:00,94.6,29.6,29.62,North,352,5.0,9.0,10,0.00,,,0.00,HR-IXPWINDi_r2_v1.2.,2013-06-09 21:24:00,
2013-06-09 15:29:00,94.4,29.5,29.62,NW,319,2.0,9.0,10,0.00,,,0.00,HR-IXPWINDi_r2_v1.2.,2013-06-09 21:29:00,
2013-06-09 15:34:00,94.2,29.3,29.62,WNW,288,5.0,8.0,10,0.00,,,0.00,HR-IXPWINDi_r2_v1.2.,2013-06-09 21:34:00,
2013-06-09 15:39:00,94.2,29.3,29.62,West,276,4.0,8.0,10,0.00,,,0.00,HR-IXPWINDi_r2_v1.2.,2013-06-09 21:39:00,
2013-06-09 15:44:00,94.6,32.0,29.62,NNE,26,6.0,10.0,11,0.00,,,0.00,HR-IXPWINDi_r2_v1.2.,2013-06-09 21:44:00,
2013-06-09 15:49:00,95.0,32.3,29.61,WNW,293,2.0,10.0,11,0.00,,,0.00,HR-IXPWINDi_r2_v1.2.,2013-06-09 21:49:00,
2013-06-09 15:55:00,95.0,32.3,29.61,NE,37,4.0,7.0,11,0.00,,,0.00,HR-IXPWINDi_r2_v1.2.,2013-06-09 21:55:00,
2013-06-09 16:00:00,95.1,32.4,29.61,North,360,2.0,8.0,11,0.00,,,0.00,HR-IXPWINDi_r2_v1.2.,2013-06-09 22:00:00,
2013-06-09 16:05:00,95.2,32.5,29.61,NNE,23,6.0,9.0,11,0.00,,,0.00,HR-IXPWINDi_r2_v1.2.,2013-06-09 22:05:00,
2013-06-09 16:10:00,94.9,32.2,29.60,NNE,16,8.0,10.0,11,0.00,,,0.00,HR-IXPWINDi_r2_v1.2.,2013-06-09 22:10:00,
2013-06-09 16:15:00,95.0,29.9,29.60,NE,38,3.0,10.0,10,0.00,,,0.00,HR-IXPWINDi_r2_v1.2.,2013-06-09 22:15:00,
2013-06-09 16:20:00,95.5,34.9,29.60,NNW,329,3.0,8.0,12,0.00,,,0.00,HR-IXPWINDi_r2_v1.2.,2013-06-09 22:20:00,
2013-06-09 16:25:00,95.1,34.5,29.60,North,356,5.0,8.0,12,0.00,,,0.00,HR-IXPWINDi_r2_v1.2.,2013-06-09 22:25:00,
2013-06-09 16:31:00,95.1,30.0,29.59,NE,36,5.0,10.0,10,0.00,,,0.00,HR-IXPWINDi_r2_v1.2.,2013-06-09 22:31:00,
2013-06-09 16:36:00,95.1,32.4,29.59,WNW,300,2.0,10.0,11,0.00,,,0.00,HR-IXPWINDi_r2_v1.2.,2013-06-09 22:36:00,
2013-06-09 16:41:00,95.4,32.6,29.59,ENE,58,3.0,9.0,11,0.00,,,0.00,HR-IXPWINDi_r2_v1.2.,2013-06-09 22:41:00,
2013-06-09 16:47:00,95.6,32.8,29.59,WNW,284,2.0,7.0,11,0.00,,,0.00,HR-IXPWINDi_r2_v1.2.,2013-06-09 22:47:00,
2013-06-09 16:52:00,96.2,30.9,29.59,North,5,4.0,6.0,10,0.00,,,0.00,HR-IXPWINDi_r2_v1.2.,2013-06-09 22:52:00,
2013-06-09 16:57:00,96.1,35.3,29.58,NNE,26,4.0,8.0,12,0.00,,,0.00,HR-IXPWINDi_r2_v1.2.,2013-06-09 22:57:00,
2013-06-09 17:02:00,96.6,33.5,29.58,North,354,3.0,8.0,11,0.00,,,0.00,HR-IXPWINDi_r2_v1.2.,2013-06-09 23:02:00,
2013-06-09 17:07:00,96.5,28.5,29.58,NNE,20,4.0,6.0,9,0.00,,,0.00,HR-IXPWINDi_r2_v1.2.,2013-06-09 23:07:00,
2013-06-09 17:12:00,96.9,31.4,29.58,NW,311,1.0,6.0,10,0.00,,,0.00,HR-IXPWINDi_r2_v1.2.,2013-06-09 23:12:00,
2013-06-09 17:18:00,96.8,28.7,29.58,NE,41,3.0,8.0,9,0.00,,,0.00,HR-IXPWINDi_r2_v1.2.,2013-06-09 23:18:00,
2013-06-09 17:23:00,96.4,28.4,29.58,NE,39,2.0,8.0,9,0.00,,,0.00,HR-IXPWINDi_r2_v1.2.,2013-06-09 23:23:00,
2013-06-09 17:28:00,96.3,30.9,29.58,West,273,1.0,7.0,10,0.00,,,0.00,HR-IXPWINDi_r2_v1.2.,2013-06-09 23:28:00,
2013-06-09 17:33:00,96.7,31.2,29.58,East,96,2.0,5.0,10,0.00,,,0.00,HR-IXPWINDi_r2_v1.2.,2013-06-09 23:33:00,
2013-06-09 17:38:00,96.9,31.4,29.57,North,11,3.0,5.0,10,0.00,,,0.00,HR-IXPWINDi_r2_v1.2.,2013-06-09 23:38:00,
2013-06-09 17:44:00,97.1,28.9,29.57,West,278,1.0,5.0,9,0.00,,,0.00,HR-IXPWINDi_r2_v1.2.,2013-06-09 23:44:00,
2013-06-09 17:49:00,97.9,29.5,29.57,NE,40,1.0,5.0,9,0.00,,,0.00,HR-IXPWINDi_r2_v1.2.,2013-06-09 23:49:00,
2013-06-09 17:54:00,98.4,27.1,29.57,WNW,299,3.0,4.0,8,0.00,,,0.00,HR-IXPWINDi_r2_v1.2.,2013-06-09 23:54:00,
2013-06-09 17:59:00,98.3,29.8,29.57,North,9,0.0,3.0,9,0.00,,,0.00,HR-IXPWINDi_r2_v1.2.,2013-06-09 23:59:00,
2013-06-09 18:04:00,98.1,26.8,29.57,WNW,291,2.0,7.0,8,0.00,,,0.00,HR-IXPWINDi_r2_v1.2.,2013-06-10 00:04:00,
2013-06-09 18:09:00,98.2,29.8,29.56,West,262,2.0,7.0,9,0.00,,,0.00,HR-IXPWINDi_r2_v1.2.,2013-06-10 00:09:00,
2013-06-09 18:15:00,98.6,27.2,29.56,West,281,3.0,5.0,8,0.00,,,0.00,HR-IXPWINDi_r2_v1.2.,2013-06-10 00:15:00,
2013-06-09 18:20:00,98.4,23.8,29.56,NW,304,3.0,5.0,7,0.00,,,0.00,HR-IXPWINDi_r2_v1.2.,2013-06-10 00:20:00,
2013-06-09 18:25:00,98.3,27.0,29.56,NE,39,1.0,5.0,8,0.00,,,0.00,HR-IXPWINDi_r2_v1.2.,2013-06-10 00:25:00,
2013-06-09 18:30:00,98.0,26.8,29.56,West,269,3.0,6.0,8,0.00,,,0.00,HR-IXPWINDi_r2_v1.2.,2013-06-10 00:30:00,
2013-06-09 18:36:00,97.7,26.5,29.56,WNW,302,4.0,9.0,8,0.00,,,0.00,HR-IXPWINDi_r2_v1.2.,2013-06-10 00:36:00,
2013-06-09 18:41:00,97.8,23.4,29.56,NW,311,2.0,9.0,7,0.00,,,0.00,HR-IXPWINDi_r2_v1.2.,2013-06-10 00:41:00,
2013-06-09 18:46:00,97.8,26.6,29.55,NNW,348,1.0,5.0,8,0.00,,,0.00,HR-IXPWINDi_r2_v1.2.,2013-06-10 00:46:00,
2013-06-09 18:51:00,98.1,29.7,29.56,North,6,0.0,5.0,9,0.00,,,0.00,HR-IXPWINDi_r2_v1.2.,2013-06-10 00:51:00,
2013-06-09 18:57:00,98.4,29.9,29.55,East,82,0.0,4.0,9,0.00,,,0.00,HR-IXPWINDi_r2_v1.2.,2013-06-10 00:57:00,
2013-06-09 19:02:00,98.2,26.9,29.55,NW,308,2.0,3.0,8,0.00,,,0.00,HR-IXPWINDi_r2_v1.2.,2013-06-10 01:02:00,
2013-06-09 19:07:00,97.7,34.4,29.55,NE,44,3.0,4.0,11,0.00,,,0.00,HR-IXPWINDi_r2_v1.2.,2013-06-10 01:07:00,
2013-06-09 19:12:00,96.8,31.3,29.55,NE,44,3.0,4.0,10,0.00,,,0.00,HR-IXPWINDi_r2_v1.2.,2013-06-10 01:12:00,
2013-06-09 19:17:00,96.1,33.1,29.55,NE,37,2.0,5.0,11,0.00,,,0.00,HR-IXPWINDi_r2_v1.2.,2013-06-10 01:17:00,
2013-06-09 19:22:00,95.5,34.9,29.55,ENE,77,2.0,5.0,12,0.00,,,0.00,HR-IXPWINDi_r2_v1.2.,2013-06-10 01:22:00,
2013-06-09 19:27:00,95.0,36.5,29.55,ENE,77,1.0,4.0,13,0.00,,,0.00,HR-IXPWINDi_r2_v1.2.,2013-06-10 01:27:00,
2013-06-09 19:32:00,94.7,36.2,29.55,ESE,112,2.0,3.0,13,0.00,,,0.00,HR-IXPWINDi_r2_v1.2.,2013-06-10 01:32:00,
2013-06-09 19:38:00,94.5,36.1,29.55,East,85,2.0,3.0,13,0.00,,,0.00,HR-IXPWINDi_r2_v1.2.,2013-06-10 01:38:00,
2013-06-09 19:43:00,94.4,37.9,29.55,ENE,69,0.0,3.0,14,0.00,,,0.00,HR-IXPWINDi_r2_v1.2.,2013-06-10 01:43:00,
2013-06-09 19:48:00,94.4,37.9,29.54,NE,41,2.0,2.0,14,0.00,,,0.00,HR-IXPWINDi_r2_v1.2.,2013-06-10 01:48:00,
2013-06-09 19:53:00,94.0,35.7,29.54,NE,39,2.0,4.0,13,0.00,,,0.00,HR-IXPWINDi_r2_v1.2.,2013-06-10 01:53:00,
2013-06-09 19:58:00,94.0,37.6,29.55,NE,38,1.0,4.0,14,0.00,,,0.00,HR-IXPWINDi_r2_v1.2.,2013-06-10 01:58:00,
2013-06-09 20:03:00,94.0,39.3,29.55,NE,38,0.0,2.0,15,0.00,,,0.00,HR-IXPWINDi_r2_v1.2.,2013-06-10 02:03:00,
2013-06-09 20:09:00,94.1,39.4,29.55,NE,39,0.0,1.0,15,0.00,,,0.00,HR-IXPWINDi_r2_v1.2.,2013-06-10 02:09:00,
2013-06-09 20:14:00,93.4,38.9,29.55,SE,139,0.0,2.0,15,0.00,,,0.00,HR-IXPWINDi_r2_v1.2.,2013-06-10 02:14:00,
2013-06-09 20:19:00,92.9,38.5,29.55,SE,142,1.0,2.0,15,0.00,,,0.00,HR-IXPWINDi_r2_v1.2.,2013-06-10 02:19:00,
2013-06-09 20:24:00,92.3,39.6,29.55,SSE,148,0.0,2.0,16,0.00,,,0.00,HR-IXPWINDi_r2_v1.2.,2013-06-10 02:24:00,
2013-06-09 20:29:00,91.1,41.7,29.55,SSE,148,1.0,2.0,18,0.00,,,0.00,HR-IXPWINDi_r2_v1.2.,2013-06-10 02:29:00,
2013-06-09 20:34:00,89.9,40.7,29.55,SE,137,1.0,1.0,18,0.00,,,0.00,HR-IXPWINDi_r2_v1.2.,2013-06-10 02:34:00,
2013-06-09 20:39:00,88.9,41.3,29.55,SE,136,0.0,1.0,19,0.00,,,0.00,HR-IXPWINDi_r2_v1.2.,2013-06-10 02:39:00,
2013-06-09 20:45:00,87.9,40.5,29.55,SE,137,0.0,1.0,19,0.00,,,0.00,HR-IXPWINDi_r2_v1.2.,2013-06-10 02:45:00,
2013-06-09 20:50:00,87.0,38.4,29.55,SE,137,0.0,1.0,18,0.00,,,0.00,HR-IXPWINDi_r2_v1.2.,2013-06-10 02:50:00,
2013-06-09 20:55:00,85.9,46.0,29.55,SE,136,1.0,1.0,25,0.00,,,0.00,HR-IXPWINDi_r2_v1.2.,2013-06-10 02:55:00,
2013-06-09 21:00:00,84.0,46.4,29.55,SE,136,0.0,1.0,27,0.00,,,0.00,HR-IXPWINDi_r2_v1.2.,2013-06-10 03:00:00,
2013-06-09 21:05:00,83.0,45.6,29.55,South,191,0.0,1.0,27,0.00,,,0.00,HR-IXPWINDi_r2_v1.2.,2013-06-10 03:05:00,
2013-06-09 21:11:00,82.4,46.9,29.55,SSW,192,0.0,0.0,29,0.00,,,0.00,HR-IXPWINDi_r2_v1.2.,2013-06-10 03:11:00,
2013-06-09 21:16:00,81.8,47.3,29.55,SE,146,0.0,0.0,30,0.00,,,0.00,HR-IXPWINDi_r2_v1.2.,2013-06-10 03:16:00,
2013-06-09 21:21:00,81.0,45.7,29.55,SE,145,0.0,0.0,29,0.00,,,0.00,HR-IXPWINDi_r2_v1.2.,2013-06-10 03:21:00,
2013-06-09 21:26:00,80.2,45.0,29.55,SE,146,0.0,0.0,29,0.00,,,0.00,HR-IXPWINDi_r2_v1.2.,2013-06-10 03:26:00,
2013-06-09 21:31:00,79.6,47.1,29.55,SE,145,0.0,0.0,32,0.00,,,0.00,HR-IXPWINDi_r2_v1.2.,2013-06-10 03:31:00,
2013-06-09 21:36:00,79.0,46.6,29.55,SE,145,0.0,0.0,32,0.00,,,0.00,HR-IXPWINDi_r2_v1.2.,2013-06-10 03:36:00,
2013-06-09 21:41:00,78.2,45.9,29.56,SE,146,0.0,0.0,32,0.00,,,0.00,HR-IXPWINDi_r2_v1.2.,2013-06-10 03:41:00,
2013-06-09 21:46:00,77.7,46.3,29.56,SE,136,0.0,0.0,33,0.00,,,0.00,HR-IXPWINDi_r2_v1.2.,2013-06-10 03:46:00,
2013-06-09 21:51:00,77.2,47.4,29.56,SE,136,0.0,0.0,35,0.00,,,0.00,HR-IXPWINDi_r2_v1.2.,2013-06-10 03:51:00,
2013-06-09 21:56:00,76.6,46.9,29.56,SE,137,0.0,0.0,35,0.00,,,0.00,HR-IXPWINDi_r2_v1.2.,2013-06-10 03:56:00,
2013-06-09 22:08:00,75.6,47.5,29.56,SE,137,0.0,0.0,37,0.00,,,0.00,HR-IXPWINDi_r2_v1.2.,2013-06-10 04:08:00,
2013-06-09 22:13:00,75.1,46.3,29.57,SE,138,0.0,0.0,36,0.00,,,0.00,HR-IXPWINDi_r2_v1.2.,2013-06-10 04:13:00,
2013-06-09 22:18:00,74.8,47.5,29.57,NE,44,1.0,1.0,38,0.00,,,0.00,HR-IXPWINDi_r2_v1.2.,2013-06-10 04:18:00,
2013-06-09 22:24:00,74.6,43.6,29.57,NE,34,1.0,3.0,33,0.00,,,0.00,HR-IXPWINDi_r2_v1.2.,2013-06-10 04:24:00,
2013-06-09 22:29:00,74.4,40.9,29.57,North,4,1.0,3.0,30,0.00,,,0.00,HR-IXPWINDi_r2_v1.2.,2013-06-10 04:29:00,
2013-06-09 22:34:00,74.2,43.2,29.57,NNE,32,2.0,2.0,33,0.00,,,0.00,HR-IXPWINDi_r2_v1.2.,2013-06-10 04:34:00,
2013-06-09 22:39:00,73.8,39.5,29.58,NE,56,1.0,3.0,29,0.00,,,0.00,HR-IXPWINDi_r2_v1.2.,2013-06-10 04:39:00,
2013-06-09 22:44:00,73.2,39.9,29.58,NE,56,1.0,3.0,30,0.00,,,0.00,HR-IXPWINDi_r2_v1.2.,2013-06-10 04:44:00,
2013-06-09 22:49:00,72.8,37.8,29.58,ESE,106,1.0,2.0,28,0.00,,,0.00,HR-IXPWINDi_r2_v1.2.,2013-06-10 04:49:00,
2013-06-09 22:54:00,72.6,38.5,29.58,ESE,106,0.0,2.0,29,0.00,,,0.00,HR-IXPWINDi_r2_v1.2.,2013-06-10 04:54:00,
2013-06-09 22:59:00,72.0,39.7,29.58,ESE,106,1.0,1.0,31,0.00,,,0.00,HR-IXPWINDi_r2_v1.2.,2013-06-10 04:59:00,
2013-06-09 23:04:00,71.4,39.2,29.58,ESE,106,0.0,1.0,31,0.00,,,0.00,HR-IXPWINDi_r2_v1.2.,2013-06-10 05:04:00,
2013-06-09 23:09:00,71.1,39.7,29.58,ESE,106,0.0,1.0,32,0.00,,,0.00,HR-IXPWINDi_r2_v1.2.,2013-06-10 05:09:00,
2013-06-09 23:15:00,70.8,38.6,29.58,ESE,105,1.0,1.0,31,0.00,,,0.00,HR-IXPWINDi_r2_v1.2.,2013-06-10 05:15:00,
2013-06-09 23:20:00,70.6,40.1,29.58,ESE,106,0.0,1.0,33,0.00,,,0.00,HR-IXPWINDi_r2_v1.2.,2013-06-10 05:20:00,
2013-06-09 23:25:00,70.2,42.7,29.58,West,276,1.0,2.0,37,0.00,,,0.00,HR-IXPWINDi_r2_v1.2.,2013-06-10 05:25:00,
2013-06-09 23:30:00,69.4,42.7,29.58,WNW,287,0.0,2.0,38,0.00,,,0.00,HR-IXPWINDi_r2_v1.2.,2013-06-10 05:30:00,
2013-06-09 23:35:00,68.8,42.1,29.58,WNW,290,0.0,2.0,38,0.00,,,0.00,HR-IXPWINDi_r2_v1.2.,2013-06-10 05:35:00,
2013-06-09 23:40:00,68.4,41.8,29.59,WNW,290,0.0,1.0,38,0.00,,,0.00,HR-IXPWINDi_r2_v1.2.,2013-06-10 05:40:00,
2013-06-09 23:45:00,68.0,42.1,29.59,WNW,290,0.0,1.0,39,0.00,,,0.00,HR-IXPWINDi_r2_v1.2.,2013-06-10 05:45:00,
2013-06-09 23:51:00,67.5,41.6,29.59,WNW,290,0.0,0.0,39,0.00,,,0.00,HR-IXPWINDi_r2_v1.2.,2013-06-10 05:51:00,
2013-06-09 23:56:00,67.2,42.0,29.59,WNW,290,0.0,1.0,40,0.00,,,0.00,HR-IXPWINDi_r2_v1.2.,2013-06-10 05:56:00,